owner,sensor,date,latitude,longitude,relative_humidity,qcFlag 
COMPS,ioos:station:USF.COMPS:ARP:1,2017-03-01T00:00:00Z,28.4330,-82.6670,87.39,1111122 
COMPS,ioos:station:USF.COMPS:ARP:1,2017-03-01T00:06:00Z,28.4330,-82.6670,87.35,1111122 
COMPS,ioos:station:USF.COMPS:ARP:1,2017-03-01T00:12:00Z,28.4330,-82.6670,87.37,1111122 
COMPS,ioos:station:USF.COMPS:ARP:1,2017-03-01T00:18:00Z,28.4330,-82.6670,87.71,1111122 
COMPS,ioos:station:USF.COMPS:ARP:1,2017-03-01T00:24:00Z,28.4330,-82.6670,88.35,1111122 
COMPS,ioos:station:USF.COMPS:ARP:1,2017-03-01T00:30:00Z,28.4330,-82.6670,88.35,1111122 
COMPS,ioos:station:USF.COMPS:ARP:1,2017-03-01T00:36:00Z,28.4330,-82.6670,88.76,1111122 
COMPS,ioos:station:USF.COMPS:ARP:1,2017-03-01T00:42:00Z,28.4330,-82.6670,88.88,1111122 
COMPS,ioos:station:USF.COMPS:ARP:1,2017-03-01T00:48:00Z,28.4330,-82.6670,88.97,1111122 
COMPS,ioos:station:USF.COMPS:ARP:1,2017-03-01T00:54:00Z,28.4330,-82.6670,88.92,1111122 
COMPS,ioos:station:USF.COMPS:ARP:1,2017-03-01T01:00:00Z,28.4330,-82.6670,88.91,1111122 
COMPS,ioos:station:USF.COMPS:ARP:1,2017-03-01T01:06:00Z,28.4330,-82.6670,89.27,1111122 
COMPS,ioos:station:USF.COMPS:ARP:1,2017-03-01T01:12:00Z,28.4330,-82.6670,90.05,1111122 
COMPS,ioos:station:USF.COMPS:ARP:1,2017-03-01T01:18:00Z,28.4330,-82.6670,90.61,1111122 
COMPS,ioos:station:USF.COMPS:ARP:1,2017-03-01T01:24:00Z,28.4330,-82.6670,90.93,1111122 
COMPS,ioos:station:USF.COMPS:ARP:1,2017-03-01T01:30:00Z,28.4330,-82.6670,91.32,1111122 
COMPS,ioos:station:USF.COMPS:ARP:1,2017-03-01T01:36:00Z,28.4330,-82.6670,91.68,1111122 
COMPS,ioos:station:USF.COMPS:ARP:1,2017-03-01T01:42:00Z,28.4330,-82.6670,91.89,1111122 
COMPS,ioos:station:USF.COMPS:ARP:1,2017-03-01T01:48:00Z,28.4330,-82.6670,92.1,1111122 
COMPS,ioos:station:USF.COMPS:ARP:1,2017-03-01T01:54:00Z,28.4330,-82.6670,92.27,1111122 
COMPS,ioos:station:USF.COMPS:ARP:1,2017-03-01T02:00:00Z,28.4330,-82.6670,92.2,1111122 
COMPS,ioos:station:USF.COMPS:ARP:1,2017-03-01T02:06:00Z,28.4330,-82.6670,92.24,1111122 
COMPS,ioos:station:USF.COMPS:ARP:1,2017-03-01T02:12:00Z,28.4330,-82.6670,92.12,1111122 
COMPS,ioos:station:USF.COMPS:ARP:1,2017-03-01T02:18:00Z,28.4330,-82.6670,92.02,1111122 
COMPS,ioos:station:USF.COMPS:ARP:1,2017-03-01T02:24:00Z,28.4330,-82.6670,91.92,1111122 
COMPS,ioos:station:USF.COMPS:ARP:1,2017-03-01T02:30:00Z,28.4330,-82.6670,91.68,1111122 
COMPS,ioos:station:USF.COMPS:ARP:1,2017-03-01T02:36:00Z,28.4330,-82.6670,91.65,1111122 
COMPS,ioos:station:USF.COMPS:ARP:1,2017-03-01T02:42:00Z,28.4330,-82.6670,91.68,1111122 
COMPS,ioos:station:USF.COMPS:ARP:1,2017-03-01T02:48:00Z,28.4330,-82.6670,91.64,1111122 
COMPS,ioos:station:USF.COMPS:ARP:1,2017-03-01T02:54:00Z,28.4330,-82.6670,91.71,1111122 
COMPS,ioos:station:USF.COMPS:ARP:1,2017-03-01T03:00:00Z,28.4330,-82.6670,91.78,1111122 
COMPS,ioos:station:USF.COMPS:ARP:1,2017-03-01T03:06:00Z,28.4330,-82.6670,91.83,1111122 
COMPS,ioos:station:USF.COMPS:ARP:1,2017-03-01T03:12:00Z,28.4330,-82.6670,91.89,1111122 
COMPS,ioos:station:USF.COMPS:ARP:1,2017-03-01T03:18:00Z,28.4330,-82.6670,91.82,1111122 
COMPS,ioos:station:USF.COMPS:ARP:1,2017-03-01T03:24:00Z,28.4330,-82.6670,91.85,1111122 
COMPS,ioos:station:USF.COMPS:ARP:1,2017-03-01T03:30:00Z,28.4330,-82.6670,92.01,1111122 
COMPS,ioos:station:USF.COMPS:ARP:1,2017-03-01T03:36:00Z,28.4330,-82.6670,92.18,1111122 
COMPS,ioos:station:USF.COMPS:ARP:1,2017-03-01T03:42:00Z,28.4330,-82.6670,92.36,1111122 
COMPS,ioos:station:USF.COMPS:ARP:1,2017-03-01T03:48:00Z,28.4330,-82.6670,92.65,1111122 
COMPS,ioos:station:USF.COMPS:ARP:1,2017-03-01T03:54:00Z,28.4330,-82.6670,93.03,1111122 
COMPS,ioos:station:USF.COMPS:ARP:1,2017-03-01T04:00:00Z,28.4330,-82.6670,93.21,1111122 
COMPS,ioos:station:USF.COMPS:ARP:1,2017-03-01T04:06:00Z,28.4330,-82.6670,93.36,1111122 
COMPS,ioos:station:USF.COMPS:ARP:1,2017-03-01T04:12:00Z,28.4330,-82.6670,93.4,1111122 
COMPS,ioos:station:USF.COMPS:ARP:1,2017-03-01T04:18:00Z,28.4330,-82.6670,93.34,1111122 
COMPS,ioos:station:USF.COMPS:ARP:1,2017-03-01T04:24:00Z,28.4330,-82.6670,93.4,1111122 
COMPS,ioos:station:USF.COMPS:ARP:1,2017-03-01T04:30:00Z,28.4330,-82.6670,93.31,1111122 
COMPS,ioos:station:USF.COMPS:ARP:1,2017-03-01T04:36:00Z,28.4330,-82.6670,93.22,1111122 
COMPS,ioos:station:USF.COMPS:ARP:1,2017-03-01T04:42:00Z,28.4330,-82.6670,93.2,1111122 
COMPS,ioos:station:USF.COMPS:ARP:1,2017-03-01T04:48:00Z,28.4330,-82.6670,93.21,1111122 
COMPS,ioos:station:USF.COMPS:ARP:1,2017-03-01T04:54:00Z,28.4330,-82.6670,93.2,1111122 
COMPS,ioos:station:USF.COMPS:ARP:1,2017-03-01T05:00:00Z,28.4330,-82.6670,93.24,1111122 
COMPS,ioos:station:USF.COMPS:ARP:1,2017-03-01T05:06:00Z,28.4330,-82.6670,93.23,1111122 
COMPS,ioos:station:USF.COMPS:ARP:1,2017-03-01T05:12:00Z,28.4330,-82.6670,93.38,1111122 
COMPS,ioos:station:USF.COMPS:ARP:1,2017-03-01T05:18:00Z,28.4330,-82.6670,93.44,1111122 
COMPS,ioos:station:USF.COMPS:ARP:1,2017-03-01T05:24:00Z,28.4330,-82.6670,93.49,1111122 
COMPS,ioos:station:USF.COMPS:ARP:1,2017-03-01T05:30:00Z,28.4330,-82.6670,93.51,1111122 
COMPS,ioos:station:USF.COMPS:ARP:1,2017-03-01T05:36:00Z,28.4330,-82.6670,93.64,1111122 
COMPS,ioos:station:USF.COMPS:ARP:1,2017-03-01T05:42:00Z,28.4330,-82.6670,93.74,1111122 
COMPS,ioos:station:USF.COMPS:ARP:1,2017-03-01T05:48:00Z,28.4330,-82.6670,93.8,1111122 
COMPS,ioos:station:USF.COMPS:ARP:1,2017-03-01T05:54:00Z,28.4330,-82.6670,93.89,1111122 
COMPS,ioos:station:USF.COMPS:ARP:1,2017-03-01T06:00:00Z,28.4330,-82.6670,94.03,1111122 
COMPS,ioos:station:USF.COMPS:ARP:1,2017-03-01T06:06:00Z,28.4330,-82.6670,94.0,1111122 
COMPS,ioos:station:USF.COMPS:ARP:1,2017-03-01T06:12:00Z,28.4330,-82.6670,94.12,1111122 
COMPS,ioos:station:USF.COMPS:ARP:1,2017-03-01T06:18:00Z,28.4330,-82.6670,94.11,1111122 
COMPS,ioos:station:USF.COMPS:ARP:1,2017-03-01T06:24:00Z,28.4330,-82.6670,94.15,1111122 
COMPS,ioos:station:USF.COMPS:ARP:1,2017-03-01T06:30:00Z,28.4330,-82.6670,94.24,1111122 
COMPS,ioos:station:USF.COMPS:ARP:1,2017-03-01T06:36:00Z,28.4330,-82.6670,94.23,1111122 
COMPS,ioos:station:USF.COMPS:ARP:1,2017-03-01T06:42:00Z,28.4330,-82.6670,94.1,1111122 
COMPS,ioos:station:USF.COMPS:ARP:1,2017-03-01T06:48:00Z,28.4330,-82.6670,94.05,1111122 
COMPS,ioos:station:USF.COMPS:ARP:1,2017-03-01T06:54:00Z,28.4330,-82.6670,93.91,1111122 
COMPS,ioos:station:USF.COMPS:ARP:1,2017-03-01T07:00:00Z,28.4330,-82.6670,93.88,1111122 
COMPS,ioos:station:USF.COMPS:ARP:1,2017-03-01T07:06:00Z,28.4330,-82.6670,93.75,1111122 
COMPS,ioos:station:USF.COMPS:ARP:1,2017-03-01T07:12:00Z,28.4330,-82.6670,93.5,1111122 
COMPS,ioos:station:USF.COMPS:ARP:1,2017-03-01T07:18:00Z,28.4330,-82.6670,93.39,1111122 
COMPS,ioos:station:USF.COMPS:ARP:1,2017-03-01T07:24:00Z,28.4330,-82.6670,93.33,1111122 
COMPS,ioos:station:USF.COMPS:ARP:1,2017-03-01T07:30:00Z,28.4330,-82.6670,93.29,1111122 
COMPS,ioos:station:USF.COMPS:ARP:1,2017-03-01T07:36:00Z,28.4330,-82.6670,93.26,1111122 
COMPS,ioos:station:USF.COMPS:ARP:1,2017-03-01T07:42:00Z,28.4330,-82.6670,93.24,1111122 
COMPS,ioos:station:USF.COMPS:ARP:1,2017-03-01T07:48:00Z,28.4330,-82.6670,93.18,1111122 
COMPS,ioos:station:USF.COMPS:ARP:1,2017-03-01T07:54:00Z,28.4330,-82.6670,93.04,1111122 
COMPS,ioos:station:USF.COMPS:ARP:1,2017-03-01T08:00:00Z,28.4330,-82.6670,92.97,1111122 
COMPS,ioos:station:USF.COMPS:ARP:1,2017-03-01T08:06:00Z,28.4330,-82.6670,92.85,1111122 
COMPS,ioos:station:USF.COMPS:ARP:1,2017-03-01T08:12:00Z,28.4330,-82.6670,92.73,1111122 
COMPS,ioos:station:USF.COMPS:ARP:1,2017-03-01T08:18:00Z,28.4330,-82.6670,92.67,1111122 
COMPS,ioos:station:USF.COMPS:ARP:1,2017-03-01T08:24:00Z,28.4330,-82.6670,92.55,1111122 
COMPS,ioos:station:USF.COMPS:ARP:1,2017-03-01T08:30:00Z,28.4330,-82.6670,92.44,1111122 
COMPS,ioos:station:USF.COMPS:ARP:1,2017-03-01T08:36:00Z,28.4330,-82.6670,92.39,1111122 
COMPS,ioos:station:USF.COMPS:ARP:1,2017-03-01T08:42:00Z,28.4330,-82.6670,92.15,1111122 
COMPS,ioos:station:USF.COMPS:ARP:1,2017-03-01T08:48:00Z,28.4330,-82.6670,91.9,1111122 
COMPS,ioos:station:USF.COMPS:ARP:1,2017-03-01T08:54:00Z,28.4330,-82.6670,91.95,1111122 
COMPS,ioos:station:USF.COMPS:ARP:1,2017-03-01T09:00:00Z,28.4330,-82.6670,92.25,1111122 
COMPS,ioos:station:USF.COMPS:ARP:1,2017-03-01T09:06:00Z,28.4330,-82.6670,92.31,1111122 
COMPS,ioos:station:USF.COMPS:ARP:1,2017-03-01T09:12:00Z,28.4330,-82.6670,92.26,1111122 
COMPS,ioos:station:USF.COMPS:ARP:1,2017-03-01T09:18:00Z,28.4330,-82.6670,92.12,1111122 
COMPS,ioos:station:USF.COMPS:ARP:1,2017-03-01T09:24:00Z,28.4330,-82.6670,91.88,1111122 
COMPS,ioos:station:USF.COMPS:ARP:1,2017-03-01T09:30:00Z,28.4330,-82.6670,91.83,1111122 
COMPS,ioos:station:USF.COMPS:ARP:1,2017-03-01T09:36:00Z,28.4330,-82.6670,91.9,1111122 
COMPS,ioos:station:USF.COMPS:ARP:1,2017-03-01T09:42:00Z,28.4330,-82.6670,92.09,1111122 
COMPS,ioos:station:USF.COMPS:ARP:1,2017-03-01T09:48:00Z,28.4330,-82.6670,92.3,1111122 
COMPS,ioos:station:USF.COMPS:ARP:1,2017-03-01T09:54:00Z,28.4330,-82.6670,92.55,1111122 
COMPS,ioos:station:USF.COMPS:ARP:1,2017-03-01T10:00:00Z,28.4330,-82.6670,92.88,1111122 
COMPS,ioos:station:USF.COMPS:ARP:1,2017-03-01T10:06:00Z,28.4330,-82.6670,93.1,1111122 
COMPS,ioos:station:USF.COMPS:ARP:1,2017-03-01T10:12:00Z,28.4330,-82.6670,93.34,1111122 
COMPS,ioos:station:USF.COMPS:ARP:1,2017-03-01T10:18:00Z,28.4330,-82.6670,93.51,1111122 
COMPS,ioos:station:USF.COMPS:ARP:1,2017-03-01T10:24:00Z,28.4330,-82.6670,93.61,1111122 
COMPS,ioos:station:USF.COMPS:ARP:1,2017-03-01T10:30:00Z,28.4330,-82.6670,93.67,1111122 
COMPS,ioos:station:USF.COMPS:ARP:1,2017-03-01T10:36:00Z,28.4330,-82.6670,93.76,1111122 
COMPS,ioos:station:USF.COMPS:ARP:1,2017-03-01T10:42:00Z,28.4330,-82.6670,93.86,1111122 
COMPS,ioos:station:USF.COMPS:ARP:1,2017-03-01T10:48:00Z,28.4330,-82.6670,93.86,1111122 
COMPS,ioos:station:USF.COMPS:ARP:1,2017-03-01T10:54:00Z,28.4330,-82.6670,93.8,1111122 
COMPS,ioos:station:USF.COMPS:ARP:1,2017-03-01T11:00:00Z,28.4330,-82.6670,93.81,1111122 
COMPS,ioos:station:USF.COMPS:ARP:1,2017-03-01T11:06:00Z,28.4330,-82.6670,93.83,1111122 
COMPS,ioos:station:USF.COMPS:ARP:1,2017-03-01T11:12:00Z,28.4330,-82.6670,93.86,1111122 
COMPS,ioos:station:USF.COMPS:ARP:1,2017-03-01T11:18:00Z,28.4330,-82.6670,94.01,1111122 
COMPS,ioos:station:USF.COMPS:ARP:1,2017-03-01T11:24:00Z,28.4330,-82.6670,94.14,1111122 
COMPS,ioos:station:USF.COMPS:ARP:1,2017-03-01T11:30:00Z,28.4330,-82.6670,94.29,1111122 
COMPS,ioos:station:USF.COMPS:ARP:1,2017-03-01T11:36:00Z,28.4330,-82.6670,94.38,1111122 
COMPS,ioos:station:USF.COMPS:ARP:1,2017-03-01T11:42:00Z,28.4330,-82.6670,94.49,1111122 
COMPS,ioos:station:USF.COMPS:ARP:1,2017-03-01T11:48:00Z,28.4330,-82.6670,94.71,1111122 
COMPS,ioos:station:USF.COMPS:ARP:1,2017-03-01T11:54:00Z,28.4330,-82.6670,94.86,1111122 
COMPS,ioos:station:USF.COMPS:ARP:1,2017-03-01T12:00:00Z,28.4330,-82.6670,95.12,1111122 
COMPS,ioos:station:USF.COMPS:ARP:1,2017-03-01T12:06:00Z,28.4330,-82.6670,95.29,1111122 
COMPS,ioos:station:USF.COMPS:ARP:1,2017-03-01T12:12:00Z,28.4330,-82.6670,95.41,1111122 
COMPS,ioos:station:USF.COMPS:ARP:1,2017-03-01T12:18:00Z,28.4330,-82.6670,95.48,1111122 
COMPS,ioos:station:USF.COMPS:ARP:1,2017-03-01T12:24:00Z,28.4330,-82.6670,95.51,1111122 
COMPS,ioos:station:USF.COMPS:ARP:1,2017-03-01T12:30:00Z,28.4330,-82.6670,95.5,1111122 
COMPS,ioos:station:USF.COMPS:ARP:1,2017-03-01T12:36:00Z,28.4330,-82.6670,95.27,1111122 
COMPS,ioos:station:USF.COMPS:ARP:1,2017-03-01T12:42:00Z,28.4330,-82.6670,94.9,1111122 
COMPS,ioos:station:USF.COMPS:ARP:1,2017-03-01T12:48:00Z,28.4330,-82.6670,94.51,1111122 
COMPS,ioos:station:USF.COMPS:ARP:1,2017-03-01T12:54:00Z,28.4330,-82.6670,93.71,1111122 
COMPS,ioos:station:USF.COMPS:ARP:1,2017-03-01T13:00:00Z,28.4330,-82.6670,92.95,1111122 
COMPS,ioos:station:USF.COMPS:ARP:1,2017-03-01T13:06:00Z,28.4330,-82.6670,92.17,1111122 
COMPS,ioos:station:USF.COMPS:ARP:1,2017-03-01T13:12:00Z,28.4330,-82.6670,91.48,1111122 
COMPS,ioos:station:USF.COMPS:ARP:1,2017-03-01T13:18:00Z,28.4330,-82.6670,90.91,1111122 
COMPS,ioos:station:USF.COMPS:ARP:1,2017-03-01T13:24:00Z,28.4330,-82.6670,90.29,1111122 
COMPS,ioos:station:USF.COMPS:ARP:1,2017-03-01T13:30:00Z,28.4330,-82.6670,89.81,1111122 
COMPS,ioos:station:USF.COMPS:ARP:1,2017-03-01T13:36:00Z,28.4330,-82.6670,89.27,1111122 
COMPS,ioos:station:USF.COMPS:ARP:1,2017-03-01T13:42:00Z,28.4330,-82.6670,88.67,1111122 
COMPS,ioos:station:USF.COMPS:ARP:1,2017-03-01T13:48:00Z,28.4330,-82.6670,87.64,1111122 
COMPS,ioos:station:USF.COMPS:ARP:1,2017-03-01T13:54:00Z,28.4330,-82.6670,84.32,1111122 
COMPS,ioos:station:USF.COMPS:ARP:1,2017-03-01T14:00:00Z,28.4330,-82.6670,81.88,1111122 
COMPS,ioos:station:USF.COMPS:ARP:1,2017-03-01T14:06:00Z,28.4330,-82.6670,80.1,1111122 
COMPS,ioos:station:USF.COMPS:ARP:1,2017-03-01T14:12:00Z,28.4330,-82.6670,78.03,1111122 
COMPS,ioos:station:USF.COMPS:ARP:1,2017-03-01T14:18:00Z,28.4330,-82.6670,77.8,1111122 
COMPS,ioos:station:USF.COMPS:ARP:1,2017-03-01T14:24:00Z,28.4330,-82.6670,76.87,1111122 
COMPS,ioos:station:USF.COMPS:ARP:1,2017-03-01T14:30:00Z,28.4330,-82.6670,76.0,1111122 
COMPS,ioos:station:USF.COMPS:ARP:1,2017-03-01T14:36:00Z,28.4330,-82.6670,75.48,1111122 
COMPS,ioos:station:USF.COMPS:ARP:1,2017-03-01T14:42:00Z,28.4330,-82.6670,74.37,1111122 
COMPS,ioos:station:USF.COMPS:ARP:1,2017-03-01T14:48:00Z,28.4330,-82.6670,72.97,1111122 
COMPS,ioos:station:USF.COMPS:ARP:1,2017-03-01T14:54:00Z,28.4330,-82.6670,72.38,1111122 
COMPS,ioos:station:USF.COMPS:ARP:1,2017-03-01T15:00:00Z,28.4330,-82.6670,70.82,1111122 
COMPS,ioos:station:USF.COMPS:ARP:1,2017-03-01T15:06:00Z,28.4330,-82.6670,70.73,1111122 
COMPS,ioos:station:USF.COMPS:ARP:1,2017-03-01T15:12:00Z,28.4330,-82.6670,69.92,1111122 
COMPS,ioos:station:USF.COMPS:ARP:1,2017-03-01T15:18:00Z,28.4330,-82.6670,68.53,1111122 
COMPS,ioos:station:USF.COMPS:ARP:1,2017-03-01T15:24:00Z,28.4330,-82.6670,67.07,1111122 
COMPS,ioos:station:USF.COMPS:ARP:1,2017-03-01T15:30:00Z,28.4330,-82.6670,65.8,1111122 
COMPS,ioos:station:USF.COMPS:ARP:1,2017-03-01T15:36:00Z,28.4330,-82.6670,65.13,1111122 
COMPS,ioos:station:USF.COMPS:ARP:1,2017-03-01T15:42:00Z,28.4330,-82.6670,63.38,1111122 
COMPS,ioos:station:USF.COMPS:ARP:1,2017-03-01T15:48:00Z,28.4330,-82.6670,62.68,1111122 
COMPS,ioos:station:USF.COMPS:ARP:1,2017-03-01T15:54:00Z,28.4330,-82.6670,63.04,1111122 
COMPS,ioos:station:USF.COMPS:ARP:1,2017-03-01T16:00:00Z,28.4330,-82.6670,62.94,1111122 
COMPS,ioos:station:USF.COMPS:ARP:1,2017-03-01T16:06:00Z,28.4330,-82.6670,63.11,1111122 
COMPS,ioos:station:USF.COMPS:ARP:1,2017-03-01T16:12:00Z,28.4330,-82.6670,63.26,1111122 
COMPS,ioos:station:USF.COMPS:ARP:1,2017-03-01T16:18:00Z,28.4330,-82.6670,60.8,1111122 
COMPS,ioos:station:USF.COMPS:ARP:1,2017-03-01T16:24:00Z,28.4330,-82.6670,58.56,1111122 
COMPS,ioos:station:USF.COMPS:ARP:1,2017-03-01T16:30:00Z,28.4330,-82.6670,59.71,1111122 
COMPS,ioos:station:USF.COMPS:ARP:1,2017-03-01T16:36:00Z,28.4330,-82.6670,60.24,1111122 
COMPS,ioos:station:USF.COMPS:ARP:1,2017-03-01T16:42:00Z,28.4330,-82.6670,59.23,1111122 
COMPS,ioos:station:USF.COMPS:ARP:1,2017-03-01T16:48:00Z,28.4330,-82.6670,55.67,1111122 
COMPS,ioos:station:USF.COMPS:ARP:1,2017-03-01T16:54:00Z,28.4330,-82.6670,55.45,1111122 
COMPS,ioos:station:USF.COMPS:ARP:1,2017-03-01T17:00:00Z,28.4330,-82.6670,54.69,1111122 
COMPS,ioos:station:USF.COMPS:ARP:1,2017-03-01T17:06:00Z,28.4330,-82.6670,54.45,1111122 
COMPS,ioos:station:USF.COMPS:ARP:1,2017-03-01T17:12:00Z,28.4330,-82.6670,51.71,1111122 
COMPS,ioos:station:USF.COMPS:ARP:1,2017-03-01T17:18:00Z,28.4330,-82.6670,51.21,1111122 
COMPS,ioos:station:USF.COMPS:ARP:1,2017-03-01T17:24:00Z,28.4330,-82.6670,50.41,1111122 
COMPS,ioos:station:USF.COMPS:ARP:1,2017-03-01T17:30:00Z,28.4330,-82.6670,49.07,1111122 
COMPS,ioos:station:USF.COMPS:ARP:1,2017-03-01T17:36:00Z,28.4330,-82.6670,50.01,1111122 
COMPS,ioos:station:USF.COMPS:ARP:1,2017-03-01T17:42:00Z,28.4330,-82.6670,52.18,1111122 
COMPS,ioos:station:USF.COMPS:ARP:1,2017-03-01T17:48:00Z,28.4330,-82.6670,61.35,1111122 
COMPS,ioos:station:USF.COMPS:ARP:1,2017-03-01T17:54:00Z,28.4330,-82.6670,73.05,1111122 
COMPS,ioos:station:USF.COMPS:ARP:1,2017-03-01T18:00:00Z,28.4330,-82.6670,74.22,1111122 
COMPS,ioos:station:USF.COMPS:ARP:1,2017-03-01T18:06:00Z,28.4330,-82.6670,74.75,1111122 
COMPS,ioos:station:USF.COMPS:ARP:1,2017-03-01T18:12:00Z,28.4330,-82.6670,71.53,1111122 
COMPS,ioos:station:USF.COMPS:ARP:1,2017-03-01T18:18:00Z,28.4330,-82.6670,71.33,1111122 
COMPS,ioos:station:USF.COMPS:ARP:1,2017-03-01T18:24:00Z,28.4330,-82.6670,69.11,1111122 
COMPS,ioos:station:USF.COMPS:ARP:1,2017-03-01T18:30:00Z,28.4330,-82.6670,68.92,1111122 
COMPS,ioos:station:USF.COMPS:ARP:1,2017-03-01T18:36:00Z,28.4330,-82.6670,68.02,1111122 
COMPS,ioos:station:USF.COMPS:ARP:1,2017-03-01T18:42:00Z,28.4330,-82.6670,68.8,1111122 
COMPS,ioos:station:USF.COMPS:ARP:1,2017-03-01T18:48:00Z,28.4330,-82.6670,68.77,1111122 
COMPS,ioos:station:USF.COMPS:ARP:1,2017-03-01T18:54:00Z,28.4330,-82.6670,70.48,1111122 
COMPS,ioos:station:USF.COMPS:ARP:1,2017-03-01T19:00:00Z,28.4330,-82.6670,70.29,1111122 
COMPS,ioos:station:USF.COMPS:ARP:1,2017-03-01T19:06:00Z,28.4330,-82.6670,69.93,1111122 
COMPS,ioos:station:USF.COMPS:ARP:1,2017-03-01T19:12:00Z,28.4330,-82.6670,70.41,1111122 
COMPS,ioos:station:USF.COMPS:ARP:1,2017-03-01T19:18:00Z,28.4330,-82.6670,70.18,1111122 
COMPS,ioos:station:USF.COMPS:ARP:1,2017-03-01T19:24:00Z,28.4330,-82.6670,71.19,1111122 
COMPS,ioos:station:USF.COMPS:ARP:1,2017-03-01T19:30:00Z,28.4330,-82.6670,71.43,1111122 
COMPS,ioos:station:USF.COMPS:ARP:1,2017-03-01T19:36:00Z,28.4330,-82.6670,71.76,1111122 
COMPS,ioos:station:USF.COMPS:ARP:1,2017-03-01T19:42:00Z,28.4330,-82.6670,70.04,1111122 
COMPS,ioos:station:USF.COMPS:ARP:1,2017-03-01T19:48:00Z,28.4330,-82.6670,70.42,1111122 
COMPS,ioos:station:USF.COMPS:ARP:1,2017-03-01T19:54:00Z,28.4330,-82.6670,70.8,1111122 
COMPS,ioos:station:USF.COMPS:ARP:1,2017-03-01T20:00:00Z,28.4330,-82.6670,70.99,1111122 
COMPS,ioos:station:USF.COMPS:ARP:1,2017-03-01T20:06:00Z,28.4330,-82.6670,72.08,1111122 
COMPS,ioos:station:USF.COMPS:ARP:1,2017-03-01T20:12:00Z,28.4330,-82.6670,71.42,1111122 
COMPS,ioos:station:USF.COMPS:ARP:1,2017-03-01T20:18:00Z,28.4330,-82.6670,72.32,1111122 
COMPS,ioos:station:USF.COMPS:ARP:1,2017-03-01T20:24:00Z,28.4330,-82.6670,73.13,1111122 
COMPS,ioos:station:USF.COMPS:ARP:1,2017-03-01T20:30:00Z,28.4330,-82.6670,73.29,1111122 
COMPS,ioos:station:USF.COMPS:ARP:1,2017-03-01T20:36:00Z,28.4330,-82.6670,73.65,1111122 
COMPS,ioos:station:USF.COMPS:ARP:1,2017-03-01T20:42:00Z,28.4330,-82.6670,74.58,1111122 
COMPS,ioos:station:USF.COMPS:ARP:1,2017-03-01T20:48:00Z,28.4330,-82.6670,74.2,1111122 
COMPS,ioos:station:USF.COMPS:ARP:1,2017-03-01T20:54:00Z,28.4330,-82.6670,74.5,1111122 
COMPS,ioos:station:USF.COMPS:ARP:1,2017-03-01T21:00:00Z,28.4330,-82.6670,74.54,1111122 
COMPS,ioos:station:USF.COMPS:ARP:1,2017-03-01T21:06:00Z,28.4330,-82.6670,74.98,1111122 
COMPS,ioos:station:USF.COMPS:ARP:1,2017-03-01T21:12:00Z,28.4330,-82.6670,75.5,1111122 
COMPS,ioos:station:USF.COMPS:ARP:1,2017-03-01T21:18:00Z,28.4330,-82.6670,76.76,1111122 
COMPS,ioos:station:USF.COMPS:ARP:1,2017-03-01T21:24:00Z,28.4330,-82.6670,77.19,1111122 
COMPS,ioos:station:USF.COMPS:ARP:1,2017-03-01T21:30:00Z,28.4330,-82.6670,77.21,1111122 
COMPS,ioos:station:USF.COMPS:ARP:1,2017-03-01T21:36:00Z,28.4330,-82.6670,78.09,1111122 
COMPS,ioos:station:USF.COMPS:ARP:1,2017-03-01T21:42:00Z,28.4330,-82.6670,78.46,1111122 
COMPS,ioos:station:USF.COMPS:ARP:1,2017-03-01T21:48:00Z,28.4330,-82.6670,78.24,1111122 
COMPS,ioos:station:USF.COMPS:ARP:1,2017-03-01T21:54:00Z,28.4330,-82.6670,78.67,1111122 
COMPS,ioos:station:USF.COMPS:ARP:1,2017-03-01T22:00:00Z,28.4330,-82.6670,78.2,1111122 
COMPS,ioos:station:USF.COMPS:ARP:1,2017-03-01T22:06:00Z,28.4330,-82.6670,78.41,1111122 
COMPS,ioos:station:USF.COMPS:ARP:1,2017-03-01T22:12:00Z,28.4330,-82.6670,77.99,1111122 
COMPS,ioos:station:USF.COMPS:ARP:1,2017-03-01T22:18:00Z,28.4330,-82.6670,78.39,1111122 
COMPS,ioos:station:USF.COMPS:ARP:1,2017-03-01T22:24:00Z,28.4330,-82.6670,78.3,1111122 
COMPS,ioos:station:USF.COMPS:ARP:1,2017-03-01T22:30:00Z,28.4330,-82.6670,79.2,1111122 
COMPS,ioos:station:USF.COMPS:ARP:1,2017-03-01T22:36:00Z,28.4330,-82.6670,80.4,1111122 
COMPS,ioos:station:USF.COMPS:ARP:1,2017-03-01T22:42:00Z,28.4330,-82.6670,80.12,1111122 
COMPS,ioos:station:USF.COMPS:ARP:1,2017-03-01T22:48:00Z,28.4330,-82.6670,79.97,1111122 
COMPS,ioos:station:USF.COMPS:ARP:1,2017-03-01T22:54:00Z,28.4330,-82.6670,80.3,1111122 
COMPS,ioos:station:USF.COMPS:ARP:1,2017-03-01T23:00:00Z,28.4330,-82.6670,80.63,1111122 
COMPS,ioos:station:USF.COMPS:ARP:1,2017-03-01T23:06:00Z,28.4330,-82.6670,81.44,1111122 
COMPS,ioos:station:USF.COMPS:ARP:1,2017-03-01T23:12:00Z,28.4330,-82.6670,82.56,1111122 
COMPS,ioos:station:USF.COMPS:ARP:1,2017-03-01T23:18:00Z,28.4330,-82.6670,82.94,1111122 
COMPS,ioos:station:USF.COMPS:ARP:1,2017-03-01T23:24:00Z,28.4330,-82.6670,83.79,1111122 
COMPS,ioos:station:USF.COMPS:ARP:1,2017-03-01T23:30:00Z,28.4330,-82.6670,84.02,1111122 
COMPS,ioos:station:USF.COMPS:ARP:1,2017-03-01T23:36:00Z,28.4330,-82.6670,84.88,1111122 
COMPS,ioos:station:USF.COMPS:ARP:1,2017-03-01T23:42:00Z,28.4330,-82.6670,85.36,1111122 
COMPS,ioos:station:USF.COMPS:ARP:1,2017-03-01T23:48:00Z,28.4330,-82.6670,85.96,1111122 
COMPS,ioos:station:USF.COMPS:ARP:1,2017-03-01T23:54:00Z,28.4330,-82.6670,86.23,1111122 
COMPS,ioos:station:USF.COMPS:ARP:1,2017-03-02T00:00:00Z,28.4330,-82.6670,86.38,1111122 
COMPS,ioos:station:USF.COMPS:ARP:1,2017-03-02T00:06:00Z,28.4330,-82.6670,86.2,1111122 
COMPS,ioos:station:USF.COMPS:ARP:1,2017-03-02T00:12:00Z,28.4330,-82.6670,86.4,1111122 
COMPS,ioos:station:USF.COMPS:ARP:1,2017-03-02T00:18:00Z,28.4330,-82.6670,86.95,1111122 
COMPS,ioos:station:USF.COMPS:ARP:1,2017-03-02T00:24:00Z,28.4330,-82.6670,87.69,1111122 
COMPS,ioos:station:USF.COMPS:ARP:1,2017-03-02T00:30:00Z,28.4330,-82.6670,88.17,1111122 
COMPS,ioos:station:USF.COMPS:ARP:1,2017-03-02T00:36:00Z,28.4330,-82.6670,88.47,1111122 
COMPS,ioos:station:USF.COMPS:ARP:1,2017-03-02T00:42:00Z,28.4330,-82.6670,88.82,1111122 
COMPS,ioos:station:USF.COMPS:ARP:1,2017-03-02T00:48:00Z,28.4330,-82.6670,89.83,1111122 
COMPS,ioos:station:USF.COMPS:ARP:1,2017-03-02T00:54:00Z,28.4330,-82.6670,89.86,1111122 
COMPS,ioos:station:USF.COMPS:ARP:1,2017-03-02T01:00:00Z,28.4330,-82.6670,89.17,1111122 
COMPS,ioos:station:USF.COMPS:ARP:1,2017-03-02T01:06:00Z,28.4330,-82.6670,89.26,1111122 
COMPS,ioos:station:USF.COMPS:ARP:1,2017-03-02T01:12:00Z,28.4330,-82.6670,89.22,1111122 
COMPS,ioos:station:USF.COMPS:ARP:1,2017-03-02T01:18:00Z,28.4330,-82.6670,89.38,1111122 
COMPS,ioos:station:USF.COMPS:ARP:1,2017-03-02T01:24:00Z,28.4330,-82.6670,89.55,1111122 
COMPS,ioos:station:USF.COMPS:ARP:1,2017-03-02T01:30:00Z,28.4330,-82.6670,89.6,1111122 
COMPS,ioos:station:USF.COMPS:ARP:1,2017-03-02T01:36:00Z,28.4330,-82.6670,89.64,1111122 
COMPS,ioos:station:USF.COMPS:ARP:1,2017-03-02T01:42:00Z,28.4330,-82.6670,89.47,1111122 
COMPS,ioos:station:USF.COMPS:ARP:1,2017-03-02T01:48:00Z,28.4330,-82.6670,89.32,1111122 
COMPS,ioos:station:USF.COMPS:ARP:1,2017-03-02T01:54:00Z,28.4330,-82.6670,89.35,1111122 
COMPS,ioos:station:USF.COMPS:ARP:1,2017-03-02T02:00:00Z,28.4330,-82.6670,89.5,1111122 
COMPS,ioos:station:USF.COMPS:ARP:1,2017-03-02T02:06:00Z,28.4330,-82.6670,89.48,1111122 
COMPS,ioos:station:USF.COMPS:ARP:1,2017-03-02T02:12:00Z,28.4330,-82.6670,89.98,1111122 
COMPS,ioos:station:USF.COMPS:ARP:1,2017-03-02T02:18:00Z,28.4330,-82.6670,90.42,1111122 
COMPS,ioos:station:USF.COMPS:ARP:1,2017-03-02T02:24:00Z,28.4330,-82.6670,90.77,1111122 
COMPS,ioos:station:USF.COMPS:ARP:1,2017-03-02T02:30:00Z,28.4330,-82.6670,90.94,1111122 
COMPS,ioos:station:USF.COMPS:ARP:1,2017-03-02T02:36:00Z,28.4330,-82.6670,91.29,1111122 
COMPS,ioos:station:USF.COMPS:ARP:1,2017-03-02T02:42:00Z,28.4330,-82.6670,91.6,1111122 
COMPS,ioos:station:USF.COMPS:ARP:1,2017-03-02T02:48:00Z,28.4330,-82.6670,91.91,1111122 
COMPS,ioos:station:USF.COMPS:ARP:1,2017-03-02T02:54:00Z,28.4330,-82.6670,92.09,1111122 
COMPS,ioos:station:USF.COMPS:ARP:1,2017-03-02T03:00:00Z,28.4330,-82.6670,92.14,1111122 
COMPS,ioos:station:USF.COMPS:ARP:1,2017-03-02T03:06:00Z,28.4330,-82.6670,91.88,1111122 